Tracking 23731 objects as of 26-Sep-2021
HD Live streaming from Space Station
objects crossing your sky now

STARLINK-1423

Track STARLINK-1423 now!
10-day predictions
STARLINK-1423 is classified as:


NORAD ID: 45710
Int'l Code: 2020-035BF
Perigee: 553.2 km
Apogee: 555.6 km
Inclination: 53.1 °
Period: 95.6 minutes
Semi major axis: 6925 km
RCS: Unknown
Launch date: June 4, 2020
Source: United States (US)
Launch site: AIR FORCE EASTERN TEST RANGE (AFETR)
aabbcc
Your satellite tracking list
Your tracking list is empty




NASA's NSSDC Master Catalog

Two Line Element Set (TLE):
1 45710U 20035BF  21268.93571608  .00001636  00000-0  12876-3 0  9998
2 45710  53.0548 134.9233 0001760  79.2762 280.8425 15.06391024 73703
Source of the keplerian elements: AFSPC